logo
Rechercher aéroport 
image banner adimage banner adimage banner ad
image banner ad

5CL9 - Table Mountain Field

Situé à Auberry, United States

ICAO - 5CL9, IATA -

Données fournies par Airmate  

Information générale

Coordonnées: N37°8'29" W119°30'29"
Élévation : 1280 feet MSL.
Variation magnétique : 15° East
Voir autres Aéroports à California

Données opérationnelles

Special qualification required
Heure actuelle UTC:
Heure actuelle locale:
Météo à : KFAT - Fresno Yosemite Intl ( 45 km )
METAR: KFAT 130053Z 29008KT 10SM BKN150 BKN200 35/10 A2980 RMK AO2 SLP087 MTNS OBSC HZ DSNT N-E-S T03500100
TAF: KFAT 121720Z 1218/1318 VRB05KT P6SM SCT120 BKN250
Voir NOTAMs / SUP AIP / TFR affectant cet aéroport [VIEW]
Fréquences de communication: [VIEW]

Pistes:

Identifiant RWYQFULongueur (ft)Largeur (ft)SurfaceLDA (ft)
15200050EARTH
33200050EARTH

Coordonnées de l'aéroport

Adresse: Auberry United States

Vue satellite de 5CL9